Location: ??
(35.5052°N, 139.7262°E)
Time: 18:08:29
(UTC+00:00)

ATLAS 3B R/B - Pass Details

Date: 20 June 2021
Orbit: 1003 x 1191 km, 63.8° (Epoch: 21 July)

Event Time Altitude Azimuth Distance (km) Brightness Sun altitude
Rises 12:49:26 0° 239° (WSW) 3,718 5.5 -25.2°
Reaches altitude 10° 12:52:18 10° 249° (WSW) 2,777 4.9 -25.5°
Maximum altitude 12:58:02 32° 312° (NW) 1,675 4.2 -26.1°
Drops below altitude 10° 13:03:57 10° 14° (NNE) 2,859 5.6 -26.6°
Sets 13:06:58 0° 24° (NNE) 3,843 6.2 -26.8°
